Showing default

ORBCOMM FM 16, 25417

Orbit data source: Space-Track

ORBCOMM FM 16, 25417 is a payload satellite owned by Orbcomm (US) in LEO that was launched on Sun, 02 Aug 1998 UTC via a PEGASUS XL/HAPS launch vehicle from the Pegasus Launch, Eastern Range Air Space (ERAS). Payload-class satellites include a variety of spacecraft equipped with specific instruments for various scientific and technological missions. These include communications satellites like Starlink; space stations such as the ISS; scientific satellites like the Hubble; Earth observation satellites from companies like Planet Labs, Umbra, and HawkEye 360; GPS; miniature CubeSats for education and research; and military/defense satellites.

Loading next visibility...
Identifier
25417, 1998-046E
Orbit
LEO
Country
Flag of USUS / ORB
Related business
Manufacturer
OSC-Germantown
Mission
Non-operational Commercial Communications
Bus & Motor
MICROSTAR, Unknown motor
Mass
42 kg wet, 42 kg dry
Launch date (UTC)
1998-08-02 (28 years ago)
Launch vehicle
PEGASUS XL/HAPS
Launch site
Pegasus Launch, Eastern Range Air Space (ERAS)
Object type
Payload
Rocket body
Debris
Shape & HBR
Cyl + 2 Pan, 4.2 m
Radar Cross Section
1.484 m², Medium (>0.1 m² and < 1m²)

Expand to show TLE details & history
Last TLE update: 4 hours ago

TLE from 4 hours ago
0 ORBCOMM FM 16
1 25417U 98046E   26038.28108905  .00001972  00000-0  66844-3 0  9998
2 25417  44.9921 135.7390 0002431  43.7863 316.3178 14.39744846438126
Epoch: 2026-02-07T06:44Z
TLE epoch observation values (Epoch: 2026-02-07T06:44:46.093Z)
Latitude
-0.00005°
Longitude
-102.85997°
Altitude
758.085 km
Speed
7.478 km/s
True Right ascension
09h 02m 57s
True Declination
0° 00' 00"
Sunlit
Object was in full shadow at epoch
Visualization orbit readout
Latitude
Unknown
Longitude
Unknown
Altitude
Unknown
Speed
Unknown
Apparent Right ascension
Unknown
Apparent Declination
Unknown
Sunlit
N/A
Visualization observer readout
Local Sidereal Time
12:55:50
Azimuth
Unknown
Elevation
Unknown
Doppler factor
Unknown
Orbital elements
Apogee altitude
762.626 km
Perigee altitude
759.155 km
Semi-major axis
7,139.027 km
Eccentricity
0.00024
Inclination
44.9921°
RAAN
135.739°
Arg. of periapsis
43.7863°
True anomaly
316.29856°
Mean anomaly
316.3178°
Eccentric anomaly
316.30818°
Mean motion
3.59819 °/min
Orbital period
100.05 mins
BSTAR
0.00066844
Loading maneuver chart data...
Computing Atmospheric mass density...

Documentation

Showing up to 5 results
|